Tracking 19717 objects as of 25-Jun-2019
HD Live streaming from Space Station
objects crossing your sky now

GLOBALSTAR M047

Track GLOBALSTAR M047 now!
10-day predictions
GLOBALSTAR M047 is classified as:


NORAD ID: 25772
Int'l Code: 1999-031C
Perigee: 1,993.8 km
Apogee: 2,022.4 km
Inclination: 52.0 °
Period: 127.2 minutes
Semi major axis: 8379 km
RCS: 2.931 m2 (large)
Launch date: June 10, 1999
Source: Globalstar (GLOB)
Launch site: AIR FORCE EASTERN TEST RANGE (AFETR)
aabbcc
Your satellite tracking list
Your tracking list is empty




NASA's NSSDC Master Catalog

Two Line Element Set (TLE):
1 25772U 99031C   19175.73555239 -.00000054  00000-0  43667-3 0  9996
2 25772  51.9848 310.1857 0017022 112.8986 247.3619 11.31895201898516
Source of the keplerian elements: AFSPC